• In Uzbekistan
  • List of Countries
  • For 7 days
  • Water Temperature
  • Satellite Maps
  • Weather Map
  • Weather Widgets
  • user-avatar
    Login

    Hourly Weather Szekesfehervar

    Today, 15 December, Friday

    Time Temperature Precipitation Wind Pressure Humidity
    00:00 +4°C° 0.1 mm 4 mps 741 mmHg 93%
    01:00 +4°C° 0 mm 3 mps 740 mmHg 94%
    02:00 +4°C° 0.2 mm 3 mps 740 mmHg 94%
    03:00 +4°C° 0.2 mm 4 mps 739 mmHg 93%
    04:00 +5°C° 0.2 mm 4 mps 739 mmHg 93%
    05:00 +5°C° 0.2 mm 5 mps 738 mmHg 91%
    06:00 +6°C° 0.2 mm 5 mps 738 mmHg 89%
    07:00 +5°C° 0.2 mm 6 mps 738 mmHg 87%
    08:00 +7°C° 0 mm 6 mps 738 mmHg 82%
    09:00 +8°C° 0 mm 6 mps 738 mmHg 78%
    10:00 +9°C° 0 mm 7 mps 738 mmHg 74%
    11:00 +9°C° 0.1 mm 6 mps 739 mmHg 70%
    12:00 +9°C° 0.1 mm 5 mps 739 mmHg 67%
    13:00 +9°C° 0.1 mm 5 mps 739 mmHg 64%
    14:00 +8°C° 0.1 mm 4 mps 739 mmHg 65%
    15:00 +8°C° 0.1 mm 3 mps 740 mmHg 67%
    16:00 +7°C° 0.1 mm 2 mps 740 mmHg 68%
    17:00 +6°C° 0 mm 2 mps 740 mmHg 69%
    18:00 +6°C° 0 mm 2 mps 739 mmHg 69%
    19:00 +6°C° 0 mm 2 mps 739 mmHg 70%
    20:00 +4°C° 0.6 mm 3 mps 739 mmHg 72%
    21:00 +4°C° 0.6 mm 3 mps 739 mmHg 74%
    22:00 +4°C° 0.6 mm 4 mps 739 mmHg 75%
    23:00 +4°C° 1.5 mm 4 mps 738 mmHg 75%

    Tomorrow, 16 December, Saturday

    Time Temperature Precipitation Wind Pressure Humidity
    00:00 +3°C° 1.5 mm 5 mps 738 mmHg 75%
    01:00 +2°C° 1.5 mm 5 mps 737 mmHg 75%
    02:00 +2°C° 0.6 mm 5 mps 737 mmHg 76%
    03:00 +2°C° 0.6 mm 5 mps 737 mmHg 76%
    04:00 +2°C° 0.6 mm 5 mps 737 mmHg 76%
    05:00 +2°C° 0.1 mm 5 mps 738 mmHg 77%
    06:00 +2°C° 0.1 mm 5 mps 739 mmHg 78%
    07:00 +1°C° 0.1 mm 4 mps 739 mmHg 79%
    08:00 +2°C° 0 mm 5 mps 740 mmHg 77%
    09:00 +2°C° 0 mm 5 mps 741 mmHg 76%
    10:00 +2°C° 0 mm 5 mps 741 mmHg 74%
    11:00 +3°C° 0 mm 5 mps 742 mmHg 73%
    12:00 +3°C° 0 mm 5 mps 742 mmHg 71%
    13:00 +5°C° 0 mm 5 mps 742 mmHg 69%
    14:00 +4°C° 0 mm 4 mps 743 mmHg 72%
    15:00 +3°C° 0 mm 4 mps 744 mmHg 74%
    16:00 +3°C° 0 mm 3 mps 744 mmHg 77%
    17:00 +3°C° 0 mm 4 mps 745 mmHg 77%
    18:00 +1°C° 0 mm 4 mps 745 mmHg 78%
    19:00 +1°C° 0 mm 4 mps 746 mmHg 78%
    20:00 0°C° 0 mm 4 mps 747 mmHg 78%
    21:00 0°C° 0 mm 4 mps 747 mmHg 78%
    22:00 0°C° 0 mm 4 mps 748 mmHg 78%
    23:00 0°C° 0 mm 4 mps 748 mmHg 79%

    Day after tomorrow, 17 December, Sunday

    Time Temperature Precipitation Wind Pressure Humidity
    00:00 -1°C° 0 mm 4 mps 748 mmHg 79%
    01:00 -1°C° 0 mm 4 mps 749 mmHg 80%
    02:00 -1°C° 0 mm 4 mps 749 mmHg 80%
    03:00 -1°C° 0 mm 4 mps 749 mmHg 80%
    04:00 -1°C° 0 mm 5 mps 749 mmHg 81%
    05:00 -1°C° 0 mm 4 mps 750 mmHg 82%
    06:00 -2°C° 0 mm 4 mps 751 mmHg 82%
    07:00 -2°C° 0 mm 4 mps 751 mmHg 83%
    08:00 -1°C° 0 mm 5 mps 752 mmHg 79%
    09:00 0°C° 0 mm 5 mps 752 mmHg 76%
    10:00 +1°C° 0 mm 6 mps 753 mmHg 72%
    11:00 +1°C° 0 mm 6 mps 753 mmHg 69%
    12:00 +2°C° 0 mm 6 mps 753 mmHg 67%
    13:00 +2°C° 0 mm 6 mps 753 mmHg 64%
    14:00 +1°C° 0 mm 5 mps 753 mmHg 68%
    15:00 +1°C° 0 mm 4 mps 754 mmHg 71%
    16:00 +1°C° 0 mm 3 mps 754 mmHg 74%
    17:00 0°C° 0 mm 4 mps 754 mmHg 75%
    18:00 -1°C° 0 mm 4 mps 755 mmHg 76%
    19:00 -1°C° 0 mm 4 mps 755 mmHg 76%
    20:00 -1°C° 0 mm 4 mps 756 mmHg 76%
    21:00 -1°C° 0 mm 4 mps 756 mmHg 76%
    22:00 -1°C° 0 mm 5 mps 757 mmHg 76%
    23:00 -1°C° 0 mm 5 mps 757 mmHg 76%

    18 December, Monday

    Time Temperature Precipitation Wind Pressure Humidity
    00:00 -1°C° 0 mm 5 mps 757 mmHg 76%
    01:00 -2°C° 0 mm 5 mps 757 mmHg 75%
    02:00 -2°C° 0 mm 5 mps 757 mmHg 75%
    03:00 -2°C° 0 mm 4 mps 757 mmHg 75%
    04:00 -2°C° 0 mm 4 mps 757 mmHg 75%
    05:00 -2°C° 0 mm 4 mps 757 mmHg 76%
    06:00 -1°C° 0 mm 3 mps 757 mmHg 77%
    07:00 -1°C° 0 mm 3 mps 757 mmHg 77%
    08:00 0°C° 0 mm 3 mps 757 mmHg 74%
    09:00 0°C° 0 mm 4 mps 757 mmHg 70%
    10:00 0°C° 0 mm 4 mps 757 mmHg 67%
    11:00 +1°C° 0 mm 4 mps 757 mmHg 65%
    12:00 +1°C° 0 mm 4 mps 756 mmHg 62%
    13:00 +2°C° 0 mm 3 mps 756 mmHg 60%
    14:00 +2°C° 0.1 mm 3 mps 756 mmHg 62%
    15:00 +2°C° 0.1 mm 3 mps 756 mmHg 64%
    16:00 +2°C° 0.1 mm 2 mps 755 mmHg 66%
    17:00 +2°C° 0 mm 2 mps 756 mmHg 68%
    18:00 +2°C° 0 mm 2 mps 756 mmHg 70%
    19:00 +2°C° 0 mm 2 mps 756 mmHg 71%
    20:00 +2°C° 0 mm 2 mps 756 mmHg 73%
    21:00 +2°C° 0 mm 2 mps 757 mmHg 74%
    22:00 +2°C° 0 mm 2 mps 757 mmHg 75%
    23:00 +2°C° 0 mm 2 mps 757 mmHg 77%

    19 December, Tuesday

    Time Temperature Precipitation Wind Pressure Humidity
    00:00 +1°C° 0 mm 3 mps 757 mmHg 78%
    01:00 +1°C° 0 mm 3 mps 758 mmHg 80%
    02:00 +1°C° 0.1 mm 3 mps 758 mmHg 80%
    03:00 +1°C° 0.1 mm 3 mps 758 mmHg 81%
    04:00 0°C° 0.1 mm 4 mps 758 mmHg 81%
    05:00 0°C° 0.2 mm 4 mps 759 mmHg 82%
    06:00 0°C° 0.2 mm 4 mps 759 mmHg 83%
    07:00 0°C° 0.2 mm 4 mps 760 mmHg 84%
    08:00 +1°C° 0.1 mm 4 mps 760 mmHg 83%
    09:00 +1°C° 0.1 mm 4 mps 761 mmHg 83%
    10:00 +3°C° 0.1 mm 4 mps 761 mmHg 83%
    11:00 +3°C° 0 mm 4 mps 762 mmHg 81%
    12:00 +3°C° 0 mm 4 mps 762 mmHg 80%
    13:00 +3°C° 0 mm 4 mps 762 mmHg 78%
    14:00 +3°C° 0 mm 3 mps 762 mmHg 81%
    15:00 +2°C° 0 mm 3 mps 763 mmHg 83%
    16:00 +2°C° 0 mm 2 mps 763 mmHg 86%
    17:00 +2°C° 0 mm 2 mps 763 mmHg 87%
    18:00 +1°C° 0 mm 2 mps 764 mmHg 88%
    19:00 +1°C° 0 mm 2 mps 764 mmHg 89%
    20:00 +1°C° 0 mm 1 mps 764 mmHg 88%
    21:00 +1°C° 0 mm 1 mps 765 mmHg 88%
    22:00 +1°C° 0 mm 1 mps 765 mmHg 87%
    23:00 +1°C° 0 mm 1 mps 765 mmHg 86%

    20 December, Wednesday

    Time Temperature Precipitation Wind Pressure Humidity
    00:00 +1°C° 0 mm 1 mps 765 mmHg 84%
    01:00 +1°C° 0 mm 1 mps 765 mmHg 83%
    02:00 -1°C° 0 mm 2 mps 764 mmHg 83%
    03:00 -1°C° 0 mm 2 mps 764 mmHg 83%
    04:00 -1°C° 0 mm 2 mps 764 mmHg 82%
    05:00 -1°C° 0 mm 2 mps 764 mmHg 83%
    06:00 -1°C° 0 mm 2 mps 764 mmHg 85%
    07:00 +1°C° 0 mm 2 mps 764 mmHg 86%
    08:00 0°C° 0.2 mm 3 mps 764 mmHg 86%
    09:00 +1°C° 0.2 mm 3 mps 764 mmHg 85%
    10:00 0°C° 0.2 mm 4 mps 764 mmHg 85%
    11:00 +1°C° 0.3 mm 4 mps 763 mmHg 85%
    12:00 +1°C° 0.3 mm 4 mps 763 mmHg 84%
    13:00 +1°C° 0.3 mm 5 mps 763 mmHg 83%
    14:00 +1°C° 0.3 mm 4 mps 762 mmHg 85%
    15:00 +1°C° 0.3 mm 4 mps 762 mmHg 86%
    16:00 +2°C° 0.3 mm 3 mps 762 mmHg 88%
    17:00 +2°C° 0.3 mm 3 mps 762 mmHg 88%
    18:00 +2°C° 0.3 mm 3 mps 762 mmHg 89%
    19:00 +2°C° 0.3 mm 3 mps 762 mmHg 89%
    20:00 +1°C° 0.2 mm 4 mps 762 mmHg 90%
    21:00 +1°C° 0.2 mm 4 mps 762 mmHg 90%
    22:00 +1°C° 0.2 mm 4 mps 762 mmHg 91%
    23:00 +1°C° 0.1 mm 4 mps 762 mmHg 92%
    Show more